Theta_e
325 325 324 322 323 323 323 323 323 322 322 319 320 319 318 318 317 316 316 316 315 315 315 315 315 316 316 316 315 315 314 313 311 310 309 308 307 308 317 323 327 328 329 331 333 335 334 332 330 327 326 327 326 325 324 324 324 324 323 323 323 321 322 320 320 320 319 319 318 318 317 316 316 316 316 316 315 315 315 314 314 314 313 313 312
323 324 323 323 323 321 321 322 322 322 321 320 319 319 318 317 316 315 315 315 315 316 315 315 315 315 315 315 315 315 315 313 312 310 311 309 307 306 312 319 324 327 329 329 331 333 334 335 333 328 327 327 326 325 324 324 324 324 323 323 322 322 321 321 320 320 319 319 319 319 318 316 316 316 316 316 315 315 315 314 314 313 312 313 312
321 321 321 321 320 320 320 320 320 321 322 321 319 318 318 318 317 316 315 314 315 316 315 315 315 315 315 314 315 315 315 315 313 312 311 311 308 307 307 315 320 325 328 329 330 331 332 333 335 331 330 328 328 327 325 324 324 323 322 323 322 322 321 320 319 320 320 318 318 318 318 317 316 316 316 316 315 314 314 315 314 313 313 313 312
321 320 320 319 318 319 319 319 319 320 320 320 319 318 318 317 316 316 315 315 315 315 315 314 315 315 315 314 315 315 315 315 315 314 312 311 310 308 306 308 315 320 324 328 329 329 330 331 333 330 329 328 329 328 327 326 324 324 323 323 323 322 321 321 320 319 320 319 318 318 318 318 316 316 316 315 316 315 313 314 314 314 313 313 312
322 321 318 319 318 317 317 318 319 319 318 318 318 317 316 315 315 315 314 314 314 314 315 314 314 315 314 314 315 315 316 315 315 314 312 312 311 309 307 306 307 313 317 321 326 328 329 330 332 331 330 329 329 329 329 328 325 325 324 324 323 322 321 321 319 319 319 319 318 318 318 318 317 316 316 316 315 315 314 314 314 314 312 313 312
324 322 320 319 317 317 317 317 317 317 317 317 317 315 316 314 314 312 313 313 313 314 313 313 313 314 313 314 314 315 316 316 315 315 313 312 312 310 309 307 306 307 310 315 319 323 327 329 330 332 332 331 330 328 328 328 327 326 324 324 322 322 322 322 320 319 319 319 319 319 318 318 318 317 317 316 316 315 315 314 314 314 313 313 312
325 324 320 319 318 317 316 317 317 316 316 316 316 316 315 315 314 313 312 312 312 313 313 313 313 314 314 313 313 314 314 316 316 315 313 313 312 311 310 309 307 307 309 309 312 317 322 327 329 330 331 332 332 330 329 329 328 328 325 325 324 323 322 321 321 320 319 319 319 319 319 319 318 318 317 317 316 316 315 314 314 315 314 313 313
325 324 322 319 318 317 317 316 316 316 316 316 316 316 315 315 315 314 313 312 311 312 312 312 313 313 314 314 313 313 314 314 315 315 314 313 312 312 311 310 310 308 308 309 309 310 316 321 326 328 330 331 332 332 330 330 329 328 328 326 325 325 323 322 321 321 320 319 318 318 319 319 319 318 318 317 317 316 315 315 314 314 315 314 313
325 324 323 320 318 317 316 316 316 316 316 316 315 316 316 316 315 313 314 314 312 312 312 312 313 313 313 313 313 312 312 314 314 315 314 312 312 312 312 311 310 310 309 308 308 308 311 315 320 324 325 327 330 332 332 331 330 328 328 327 327 326 325 323 322 321 320 319 318 318 318 318 318 318 318 318 317 317 316 315 315 314 314 315 314
324 324 323 322 320 318 317 316 316 316 316 316 316 315 315 315 315 314 313 313 312 312 312 312 312 313 312 312 312 312 312 312 313 312 313 313 312 312 312 312 311 310 309 309 308 308 308 310 315 317 318 319 325 329 331 331 331 330 329 328 328 327 326 325 323 322 321 320 319 319 318 318 317 317 318 318 317 317 317 316 315 315 315 315 314
323 323 322 321 320 319 318 317 317 316 316 315 315 315 315 315 314 314 313 313 314 313 313 312 312 312 312 312 312 312 312 312 312 312 313 314 314 313 313 312 311 311 310 309 309 309 309 309 309 311 313 316 322 325 327 329 329 330 329 328 328 327 327 326 325 323 322 320 319 319 319 318 318 317 317 317 317 317 317 317 316 315 315 315 315
324 324 323 322 322 320 319 318 317 316 316 315 315 314 314 313 313 313 313 311 311 312 311 310 309 309 309 310 311 311 312 312 313 313 313 313 314 313 312 312 311 312 311 310 309 308 309 310 310 311 312 314 316 320 323 326 327 329 330 329 328 328 327 327 326 325 323 322 321 320 319 318 318 317 317 317 316 316 317 317 317 316 315 314 315
325 326 325 323 323 323 321 319 318 317 316 316 316 315 315 314 314 312 312 312 311 311 309 308 308 308 309 308 310 311 311 311 313 313 313 314 313 313 312 312 312 312 312 311 310 308 308 310 310 310 311 311 313 314 317 320 321 328 328 327 328 328 328 327 326 325 324 323 322 321 320 319 318 318 317 317 316 316 316 317 317 317 316 315 314
325 326 326 326 324 324 323 322 320 319 318 317 317 314 314 313 313 312 312 312 312 311 310 310 308 308 307 305 308 310 311 312 312 313 314 314 313 313 312 312 312 312 312 311 311 310 309 309 310 310 310 310 310 311 313 314 317 323 326 326 326 327 328 328 327 326 324 324 323 322 321 320 319 319 318 317 316 316 316 317 316 316 316 316 315
327 325 326 326 326 325 324 324 322 320 318 318 317 316 316 314 313 313 311 310 311 311 310 312 310 307 304 304 304 304 307 307 312 313 315 315 314 312 313 312 313 313 312 311 311 311 310 309 309 309 310 310 310 310 311 311 313 315 322 326 328 328 328 329 328 327 325 325 324 323 322 322 321 320 320 319 318 317 316 316 316 316 316 316 316
327 327 325 326 326 326 326 325 324 322 320 319 318 317 316 315 314 313 313 310 310 310 311 312 312 307 303 305 300 298 301 304 308 312 314 314 314 313 313 313 313 313 311 311 311 311 311 310 309 310 310 310 310 310 310 310 312 312 313 317 322 327 327 328 328 328 326 325 324 323 322 322 322 321 320 320 320 319 317 316 316 316 316 315 315
327 327 326 325 326 326 326 325 325 324 322 320 319 318 318 317 316 314 313 312 311 311 310 312 312 313 309 301 299 297 302 300 300 305 309 312 313 314 313 313 313 312 311 311 311 311 311 310 310 310 310 311 311 310 310 310 310 310 312 311 315 322 327 327 328 328 327 326 325 324 323 323 322 322 321 320 320 320 318 317 316 316 315 316 315
327 327 326 325 325 326 326 325 325 324 323 322 321 320 319 317 317 316 314 314 313 311 310 309 312 312 313 312 306 302 298 298 301 300 297 308 311 312 314 313 313 312 312 311 310 311 310 311 310 310 310 310 311 310 309 309 309 309 310 312 315 319 323 326 326 327 328 327 327 326 325 322 321 322 321 321 321 320 318 317 316 316 315 315 315
326 326 326 326 325 326 326 326 325 325 323 323 322 320 320 319 318 317 317 315 313 311 310 310 307 311 313 313 311 305 299 300 300 299 298 296 303 309 311 312 313 312 312 311 311 311 311 310 310 310 310 310 310 309 309 309 309 309 312 313 317 316 318 320 324 325 326 326 327 326 326 324 322 322 321 322 321 319 319 318 318 316 316 315 315
326 326 326 326 325 326 326 325 325 325 324 323 322 322 321 320 319 318 318 317 315 313 312 311 309 310 312 312 311 312 309 304 299 302 297 296 300 300 305 309 310 312 313 312 311 311 311 310 310 310 310 310 309 309 309 308 308 309 310 314 317 317 318 319 320 321 323 325 326 327 326 325 323 323 322 321 322 320 319 319 318 317 316 315 315
326 326 326 326 324 325 326 325 325 325 323 324 323 323 321 320 319 318 317 317 316 315 314 313 311 310 310 310 311 311 311 311 308 303 303 300 302 302 303 301 305 309 311 313 313 312 311 311 311 310 310 309 309 309 308 308 308 308 309 313 315 317 319 320 320 320 319 320 322 324 325 325 325 324 322 322 321 320 320 320 319 318 317 315 315
324 325 325 325 326 325 325 325 325 325 322 323 323 323 322 321 320 319 318 316 317 316 315 315 314 313 312 311 309 310 310 310 309 308 305 305 303 303 303 302 302 307 310 311 312 312 312 311 310 309 310 310 309 308 308 308 308 308 307 309 311 314 318 320 320 320 319 319 318 318 319 321 323 324 323 322 322 321 321 320 319 318 318 317 315
323 323 324 324 325 325 325 325 325 323 322 323 323 323 323 322 321 320 318 317 316 316 314 314 314 313 312 311 310 310 310 308 309 309 308 304 303 304 306 305 304 305 307 310 311 312 312 312 311 310 310 309 309 308 308 308 306 306 306 307 309 312 315 317 319 320 319 318 318 317 318 318 318 320 322 322 322 322 322 321 320 320 319 318 317
321 322 322 323 323 324 324 324 324 324 324 324 323 323 323 323 321 320 319 318 317 316 316 314 314 314 313 312 312 312 311 311 311 309 308 308 306 304 304 303 301 305 303 301 307 311 311 312 312 311 310 310 309 308 308 308 307 304 304 306 308 311 313 315 318 319 318 318 317 316 317 318 317 317 317 318 320 322 322 322 321 320 320 319 317
320 320 321 321 322 322 323 323 323 323 323 324 324 324 323 323 322 320 319 318 317 316 315 315 315 314 313 313 313 312 312 313 312 310 309 309 307 305 306 304 303 303 302 302 304 302 309 311 312 311 311 310 309 308 307 306 307 304 302 304 305 308 310 312 316 318 318 317 317 316 315 316 317 316 315 315 316 317 321 322 322 321 320 319 318
319 320 321 321 321 321 322 322 323 323 322 323 323 324 323 322 322 321 320 319 318 317 316 315 315 315 315 314 313 312 312 313 312 311 309 307 306 305 305 298 299 303 298 296 297 301 304 306 309 311 310 310 309 308 307 307 306 303 301 303 305 307 309 311 312 314 316 316 317 316 315 315 315 315 315 315 315 315 315 318 321 321 320 320 319
320 321 320 320 321 321 321 322 322 322 322 322 322 323 323 322 322 321 321 320 319 318 317 316 315 315 314 314 313 313 312 312 312 311 311 310 308 307 305 302 301 299 299 296 295 300 307 298 305 307 309 309 309 308 308 307 305 303 301 302 304 303 304 307 310 312 314 315 316 316 315 315 315 315 315 315 316 315 314 314 315 318 319 319 318
321 320 320 320 320 320 320 321 322 322 322 322 322 322 322 322 322 321 321 321 319 318 318 317 316 315 315 315 314 313 313 312 312 312 311 311 310 309 307 304 302 300 296 299 298 302 303 305 299 303 306 307 308 308 305 305 306 302 299 302 302 302 302 304 307 310 311 312 313 314 315 315 315 316 315 314 314 313 314 314 313 314 316 317 317
321 321 320 320 320 320 320 321 321 321 321 321 321 321 321 321 321 321 321 321 320 319 319 318 317 316 315 315 314 314 314 313 312 311 311 311 311 311 310 307 306 303 301 301 304 300 299 305 304 302 303 305 306 307 307 306 305 303 303 302 302 302 302 303 305 307 308 310 311 312 313 314 314 315 314 314 313 313 312 313 313 314 315 315 314
321 321 320 320 320 316 320 320 321 321 321 321 321 321 321 320 321 321 321 321 321 320 320 319 318 318 317 316 315 315 314 314 313 313 311 311 311 311 311 310 309 306 305 303 305 307 303 301 306 302 298 303 304 305 305 305 303 302 303 302 301 302 301 302 304 306 307 309 311 312 312 312 313 313 314 314 313 313 312 312 313 314 314 314 315
319 319 319 319 319 319 319 319 320 320 320 321 321 321 320 320 320 320 320 320 320 320 321 320 319 319 318 317 317 316 316 316 315 314 313 312 312 312 312 312 311 310 308 308 304 309 310 309 303 305 303 301 303 304 304 304 303 302 303 303 302 299 298 300 301 304 306 307 308 308 311 312 313 312 313 313 313 313 313 313 313 312 312 313 312
319 319 319 319 318 318 318 318 319 319 320 320 320 320 320 320 320 319 319 319 319 319 320 321 320 320 319 318 318 318 318 317 317 316 316 315 313 313 313 313 313 312 311 309 307 307 308 309 306 305 306 304 302 302 304 304 303 299 303 303 303 298 299 299 299 300 302 304 304 305 307 308 310 311 312 312 313 313 313 312 312 312 311 311 310
318 317 317 318 318 318 318 317 318 318 319 319 320 320 319 319 320 319 319 318 318 319 319 319 320 320 319 318 318 319 319 318 318 317 317 317 316 314 313 313 313 313 312 310 308 308 309 302 303 306 304 305 302 302 303 303 302 301 299 301 301 300 299 299 299 297 299 301 303 305 305 305 306 308 310 310 312 312 312 312 311 310 309 309 309
316 316 316 317 317 317 317 317 317 317 318 319 319 319 319 318 318 319 319 318 317 317 318 318 318 319 319 318 318 318 318 318 318 317 317 317 317 316 315 313 313 312 313 311 309 309 308 302 304 299 300 303 305 302 302 301 301 300 298 298 299 299 299 298 298 298 297 299 301 303 304 304 305 305 305 305 308 309 310 311 309 309 308 308 307
313 314 315 315 316 316 316 316 316 317 317 317 318 318 318 317 317 318 318 317 316 316 316 316 317 317 317 316 317 317 318 316 316 316 316 316 316 315 315 314 312 312 312 312 311 309 309 310 308 306 302 300 304 304 302 302 302 300 298 297 297 296 296 297 297 297 296 298 300 302 303 303 304 304 304 304 305 306 307 308 308 307 308 308 308
311 312 312 314 314 314 314 314 314 315 315 315 315 315 317 316 316 317 316 316 316 316 316 315 315 315 316 316 316 316 316 315 315 315 315 315 315 314 313 313 313 312 312 311 311 310 310 309 300 306 302 302 299 297 298 296 296 294 296 295 294 295 295 295 295 295 295 297 299 299 301 302 303 303 304 304 304 304 305 305 306 305 305 305 306
308 309 310 309 310 312 313 314 314 314 314 314 315 315 315 315 315 316 316 316 315 316 316 315 310 315 315 315 316 316 315 314 315 314 314 313 313 313 312 312 312 312 312 312 311 310 309 308 307 304 303 302 301 295 297 298 294 292 289 291 292 292 293 294 293 294 294 296 297 297 298 300 301 302 303 303 303 303 303 303 303 303 303 303 303
305 306 307 308 308 309 310 312 312 313 313 312 313 313 314 314 313 314 314 314 314 315 315 315 315 315 315 316 316 315 315 314 314 314 314 313 313 312 312 312 312 311 311 311 311 311 310 311 311 310 294 298 294 291 291 294 295 293 290 289 288 289 289 290 291 292 292 292 292 294 295 297 298 300 301 301 301 301 301 301 300 300 300 300 301
300 302 303 304 305 305 308 309 310 311 313 312 313 313 313 314 313 313 313 313 313 314 314 315 316 316 316 316 316 316 315 315 315 314 314 313 312 312 312 312 312 311 311 311 311 311 311 311 310 309 307 297 296 298 290 290 290 291 294 291 289 290 288 289 290 289 289 290 291 293 293 294 295 296 298 299 300 300 299 299 299 299 298 298 299
298 299 301 303 304 303 305 306 308 309 309 310 311 312 312 313 312 312 312 312 313 313 314 315 315 315 316 316 316 316 316 316 315 315 314 313 312 311 311 311 311 310 310 310 309 309 308 307 307 305 299 297 290 287 286 288 289 289 289 292 294 294 289 287 289 289 287 287 287 287 291 292 293 294 295 296 297 298 298 297 297 295 295 297 297
296 297 299 300 300 302 304 305 305 306 307 308 310 310 311 311 312 313 314 313 313 313 314 315 315 316 316 316 316 317 313 305 304 305 308 308 314 312 311 311 310 310 310 310 310 308 307 306 305 303 299 295 293 291 288 288 290 294 294 291 292 294 291 287 287 287 287 286 287 287 286 288 288 288 289 290 291 294 295 295 294 294 296 297 297
293 293 293 295 297 298 300 301 303 306 308 310 303 301 301 308 312 313 313 313 313 313 313 314 314 315 315 316 315 303 301 300 299 300 301 301 301 309 314 313 311 310 308 305 304 303 302 302 302 302 301 300 296 293 293 292 293 291 289 289 290 291 287 288 287 287 287 287 286 285 286 287 287 287 287 288 288 289 289 290 289 290 293 296 296
291 291 290 293 294 295 297 298 299 301 304 306 300 302 302 301 304 310 313 314 314 314 313 314 313 313 314 314 315 308 301 299 300 298 299 299 300 299 299 301 303 310 307 302 303 303 302 303 303 302 301 301 300 295 294 295 292 292 293 291 292 290 290 290 291 287 286 287 286 286 286 286 286 286 286 286 286 285 286 286 289 291 291 292 293
290 288 289 291 292 292 294 294 295 296 298 297 299 300 299 299 297 302 306 310 312 313 313 313 313 313 313 313 313 313 312 310 311 309 302 298 298 299 299 299 299 301 304 308 305 301 301 301 301 301 302 301 301 295 294 293 293 291 291 290 290 291 290 290 291 293 288 288 287 286 286 284 285 285 285 285 284 284 284 286 289 290 290 291 291
287 288 289 289 289 290 290 292 292 292 293 295 296 296 296 297 297 297 301 304 306 308 311 312 311 311 310 310 310 312 313 300 299 308 309 307 298 297 297 297 297 297 299 300 302 307 308 303 302 302 302 301 300 298 296 296 296 293 291 290 290 290 291 291 292 292 284 287 287 286 285 283 284 284 284 283 283 282 283 286 288 289 290 290 290
287 287 287 287 288 288 289 290 290 291 291 293 295 295 295 295 296 296 298 299 301 303 305 308 310 311 312 310 309 309 309 306 305 306 308 308 309 306 303 302 303 299 296 296 297 296 299 305 305 303 304 301 302 301 298 296 294 293 292 291 291 290 290 291 291 287 284 287 287 286 283 280 282 283 282 280 280 280 280 284 289 290 290 290 290
286 287 287 287 287 287 288 288 289 290 291 293 294 294 294 295 295 295 296 297 298 299 301 304 306 307 309 310 309 308 307 303 305 304 304 306 306 307 305 304 304 303 303 302 301 301 301 303 305 306 306 303 303 301 299 297 297 298 297 295 293 291 289 286 284 284 284 286 287 288 287 280 280 281 279 278 278 279 280 287 289 289 289 289 289
286 285 286 285 286 287 287 287 287 288 289 292 293 293 293 294 295 294 295 296 296 297 298 300 301 304 306 307 307 307 308 307 301 299 300 304 304 302 299 301 301 302 303 300 300 301 302 305 305 305 305 303 301 300 298 297 296 295 291 288 289 288 288 288 287 283 284 285 286 287 281 278 280 280 276 276 279 278 278 279 288 288 288 288 288
286 286 286 286 286 286 286 287 287 287 287 289 291 292 292 293 293 293 294 294 295 296 297 298 299 300 301 302 302 303 303 302 298 299 299 297 301 301 300 298 299 298 299 299 296 297 297 298 299 300 301 301 300 300 299 298 295 293 291 290 288 288 288 287 287 284 285 284 284 285 283 279 278 278 276 275 276 275 275 273 276 287 288 288 288
285 286 286 286 286 285 286 286 286 286 287 288 290 291 292 292 292 292 292 292 293 293 295 295 297 298 298 292 292 298 298 299 297 298 299 297 298 298 297 295 294 295 296 295 295 296 294 295 295 295 296 297 297 298 298 297 296 293 292 292 291 289 289 290 289 285 283 282 283 283 284 280 278 278 275 274 275 270 268 272 275 281 286 286 286
285 286 286 286 286 286 285 286 285 286 287 288 289 291 291 292 291 291 291 291 291 291 292 293 293 294 295 293 291 292 294 295 296 297 297 296 298 298 298 297 296 296 298 294 294 293 292 292 293 293 292 293 294 295 294 295 294 292 294 295 291 290 291 290 288 283 282 281 283 284 283 278 278 278 277 274 270 270 266 267 271 272 274 275 279
Wind_Speed
8 8 8 8 7 7 7 7 7 6 6 6 6 7 6 6 6 6 6 6 5 6 6 6 6 6 7 7 7 6 5 6 5 4 4 6 5 6 8 8 8 10 9 10 10 14 16 16 14 12 14 15 14 14 14 13 12 11 11 10 10 10 9 9 8 8 8 8 7 7 7 7 7 6 6 6 5 4 3 4 3 2 1 1 1
7 7 8 8 7 7 7 7 8 7 6 8 7 6 7 6 6 6 7 7 6 7 6 6 6 6 6 7 6 6 6 6 5 6 6 6 6 7 10 10 10 11 11 11 11 12 13 16 17 14 15 16 15 15 15 15 14 13 12 11 11 11 10 9 9 9 9 8 8 8 8 8 8 8 6 6 6 6 4 4 4 3 3 2 1
7 7 7 7 7 7 7 6 7 7 7 7 6 7 6 7 7 7 7 7 7 7 6 6 6 6 6 7 7 6 6 6 6 5 5 6 6 6 7 11 12 12 12 12 14 14 14 15 18 17 17 16 16 17 16 16 15 14 13 13 12 11 11 11 10 10 10 10 9 9 10 9 9 9 8 7 7 7 6 5 5 5 4 4 3
7 7 7 7 7 8 7 7 8 7 7 6 6 6 7 6 7 7 7 6 7 7 6 6 7 7 6 7 6 7 7 7 7 7 7 6 7 7 7 8 11 13 13 14 15 16 14 13 16 18 17 17 18 17 17 17 17 15 14 14 13 13 12 12 11 11 11 11 11 11 11 11 11 10 10 9 8 8 8 7 6 6 6 5 6
8 9 8 7 7 8 8 8 7 7 6 7 7 6 6 6 7 6 6 6 7 8 7 7 7 8 7 7 6 7 7 7 7 6 6 7 7 7 7 7 7 11 13 13 13 15 16 15 15 17 18 18 17 18 19 19 18 17 16 15 14 14 13 13 13 12 12 12 12 12 13 13 12 12 11 10 10 9 9 9 8 8 8 7 7
9 9 8 8 7 8 8 8 7 6 6 6 7 6 6 6 7 6 6 7 8 8 7 8 8 7 7 7 6 7 7 7 7 7 7 7 7 6 7 6 7 7 7 12 14 14 15 16 17 16 17 19 19 18 19 19 19 18 17 16 16 15 14 14 14 14 13 13 14 14 14 14 14 13 12 12 11 11 11 11 10 10 9 8 8
10 9 9 8 8 8 8 7 6 6 6 6 7 6 6 8 6 7 6 7 7 8 8 8 8 9 8 6 7 7 6 7 7 7 7 7 7 7 7 7 7 7 7 7 10 14 14 16 17 17 17 18 20 19 19 19 20 20 19 18 16 16 16 15 14 14 15 15 15 15 16 15 15 14 14 13 13 13 12 12 12 11 11 10 10
10 9 8 8 8 8 8 6 6 6 7 6 6 7 7 6 7 6 8 9 7 9 7 8 8 9 8 7 7 6 7 7 8 8 7 7 7 7 7 7 7 7 7 7 7 9 14 15 15 16 16 17 19 22 21 21 20 20 20 19 19 18 17 16 16 16 16 16 16 17 17 16 16 15 15 15 14 14 14 13 13 13 12 11 12
10 9 9 8 7 7 6 7 6 7 7 7 7 7 7 7 7 7 7 8 8 9 8 8 8 9 8 7 7 7 7 7 7 8 7 7 8 8 7 7 7 8 7 7 7 7 11 14 16 17 16 16 17 21 22 21 22 21 22 21 21 20 19 18 18 17 17 17 17 17 17 18 17 17 16 16 15 15 15 14 14 14 13 12 12
9 9 9 8 7 7 6 7 7 7 7 7 8 7 7 8 9 8 8 8 8 9 10 8 7 8 8 7 7 7 7 7 7 7 7 8 8 8 9 8 8 8 8 8 8 8 8 11 15 16 16 16 15 18 21 22 23 22 23 22 22 22 21 20 20 20 19 18 18 18 19 18 18 18 18 17 16 16 16 16 15 15 14 14 13
9 9 8 8 7 7 7 7 7 7 8 8 8 8 8 8 10 9 7 9 9 8 8 6 7 7 8 8 7 8 7 7 7 7 8 9 10 10 8 9 8 8 9 8 8 8 8 8 8 8 10 17 14 20 20 20 20 23 23 23 24 22 23 22 20 21 21 21 21 20 20 20 19 19 19 18 18 17 17 17 16 15 15 14 14
9 9 9 9 8 7 8 6 7 7 8 9 9 9 11 10 10 9 9 7 7 7 5 6 5 7 8 8 8 8 8 7 8 9 8 9 9 8 9 8 8 9 9 9 8 8 9 9 8 8 8 12 16 17 18 18 18 20 23 24 24 24 23 22 21 21 21 22 21 20 20 21 20 20 20 20 19 19 18 18 17 16 15 15 15
9 9 10 9 9 8 8 8 7 8 9 11 10 10 9 9 8 8 10 10 9 7 5 3 5 8 8 8 8 8 9 8 11 10 10 10 8 9 9 8 9 10 10 8 8 9 9 9 9 8 8 7 10 14 16 17 17 20 23 24 25 24 24 24 24 23 22 22 22 21 22 22 21 21 21 21 20 20 19 19 19 17 17 15 15
9 10 10 10 10 9 9 9 8 9 9 9 8 9 9 9 7 7 7 10 10 7 6 5 7 11 8 6 7 8 10 9 11 12 12 10 9 9 9 10 11 11 9 8 9 9 9 9 9 9 9 8 8 8 9 11 14 21 23 24 26 27 27 26 25 25 24 23 23 23 23 22 21 22 22 22 21 21 20 20 20 19 18 17 16
10 10 10 11 11 10 10 9 9 9 9 10 9 10 10 11 10 10 8 7 8 5 8 11 11 4 1 3 8 5 4 5 10 15 13 12 9 10 11 11 14 11 9 8 9 10 9 8 9 9 9 9 9 8 8 10 12 16 20 21 25 28 29 29 28 27 25 23 23 24 24 22 22 22 22 22 21 21 21 21 20 20 19 18 17
11 11 11 11 12 11 10 10 10 9 10 10 11 12 10 10 11 11 9 9 8 9 8 10 10 7 4 10 3 1 8 9 11 10 11 14 12 12 10 12 12 10 8 10 11 10 9 8 10 10 10 10 10 9 9 9 13 16 18 19 21 25 29 30 30 28 26 25 26 24 25 24 24 25 23 22 21 21 21 21 20 20 19 19 18
11 12 11 12 11 11 11 10 10 10 9 11 11 12 11 11 11 10 11 12 12 8 6 9 12 10 8 3 1 2 9 5 1 7 5 9 13 14 12 12 11 11 10 11 10 10 10 10 11 10 11 11 10 10 9 10 10 10 13 17 20 20 24 27 29 29 28 26 27 26 25 25 24 24 25 23 23 22 21 21 20 20 20 19 19
11 11 12 11 11 12 11 11 11 10 10 10 10 10 12 12 11 11 13 14 11 7 9 6 11 12 14 11 6 7 3 3 1 8 3 8 7 9 13 13 12 12 11 11 11 11 10 11 10 11 11 11 10 9 10 10 10 10 9 12 17 17 20 25 28 28 27 28 29 28 27 26 25 25 25 24 24 21 21 21 21 21 20 20 19
11 11 11 11 11 11 11 11 11 11 10 10 11 12 11 11 10 11 13 10 10 12 12 8 4 10 13 15 15 7 2 2 6 2 7 3 4 7 10 11 11 13 12 12 12 11 11 11 12 12 11 11 10 10 9 11 13 14 16 17 18 22 17 20 24 27 29 27 28 28 27 26 27 27 25 25 26 23 22 21 22 22 21 21 20
11 11 12 12 11 11 11 11 12 12 11 11 13 12 10 10 11 12 11 10 11 13 13 9 11 10 10 13 14 15 11 7 3 3 4 6 8 4 6 7 8 12 12 12 13 13 13 11 12 12 11 10 10 10 10 10 10 12 13 18 18 16 17 21 22 25 26 27 28 28 27 26 27 27 27 26 27 25 22 22 22 22 22 22 21
11 12 12 12 11 12 12 12 12 12 11 12 12 12 14 13 12 11 12 12 11 12 11 12 11 13 7 11 12 12 13 12 10 5 8 7 14 11 12 2 4 11 10 12 12 11 12 13 12 12 11 10 10 11 10 10 10 11 13 17 19 20 20 22 21 22 25 24 24 27 27 26 26 27 27 28 27 26 24 24 23 22 23 22 22
10 11 12 12 12 12 12 13 14 13 11 12 13 13 13 14 14 13 12 13 11 12 14 13 11 11 11 9 9 11 10 10 11 12 10 11 16 12 9 8 10 10 10 11 12 13 12 12 11 11 11 11 10 11 11 11 11 10 14 21 21 21 21 23 23 23 24 25 24 24 24 23 25 25 26 26 26 26 26 26 27 25 23 23 23
9 10 12 12 12 12 12 13 13 12 12 13 13 13 13 13 13 13 14 15 13 13 13 13 12 12 12 11 12 12 13 14 14 12 12 10 10 14 16 13 12 11 9 10 11 13 12 11 11 12 12 12 11 10 11 12 14 15 19 20 21 20 21 23 23 23 22 24 24 24 22 20 20 22 24 25 26 27 27 27 27 26 25 23 23
9 9 10 11 10 11 12 12 12 12 13 13 12 12 12 11 11 12 13 14 14 13 13 14 16 13 13 12 13 12 12 13 13 9 10 13 11 13 11 6 4 11 5 2 7 11 12 14 13 12 12 11 11 11 11 11 13 19 17 20 21 21 21 21 24 23 24 24 24 24 22 22 22 22 23 24 23 25 27 28 27 26 26 24 23
9 10 10 11 10 11 11 12 12 13 14 13 13 14 12 12 12 13 13 14 14 14 13 15 15 14 14 13 12 12 14 13 11 10 8 9 9 12 13 8 12 8 5 4 7 4 10 13 11 11 11 11 10 10 10 11 11 16 19 16 23 22 23 22 23 25 24 24 25 24 22 21 23 23 23 23 24 25 24 26 28 27 27 25 22
10 11 10 10 10 11 12 13 13 13 13 14 14 13 13 12 13 13 14 14 13 15 15 16 15 15 13 12 13 13 13 12 12 10 11 9 10 12 12 5 5 11 4 3 1 2 7 10 9 9 10 10 10 10 9 12 12 17 19 15 18 22 20 18 21 23 24 24 24 24 23 21 21 23 23 23 24 25 25 25 25 27 26 24 23
10 10 8 9 11 11 12 13 13 13 13 12 12 13 13 12 12 14 13 12 14 14 14 15 15 16 16 14 13 12 12 12 11 12 10 11 11 10 8 12 11 8 9 5 4 9 13 2 7 9 10 9 10 10 11 10 14 18 16 13 12 19 21 22 20 21 23 25 24 24 22 21 21 23 23 23 25 24 25 26 26 25 26 27 27
9 8 9 9 10 11 12 13 13 13 12 13 13 12 13 13 12 12 14 11 13 15 14 14 16 17 17 15 13 14 12 11 12 11 11 11 10 9 9 9 11 17 6 9 5 12 6 9 2 8 8 10 10 10 12 14 11 16 15 10 10 12 18 20 21 20 22 24 25 22 21 21 22 23 22 22 23 23 22 24 25 26 23 22 23
9 7 9 8 10 11 11 12 13 13 13 13 13 13 12 12 13 13 14 13 14 14 13 14 14 14 14 15 14 13 12 11 12 11 11 10 11 10 10 12 10 12 14 13 15 6 4 10 7 5 10 9 10 9 9 10 13 13 9 10 11 11 15 20 22 23 23 23 21 20 21 21 20 21 24 25 24 22 22 21 18 17 18 22 22
8 8 8 9 9 10 11 11 11 12 13 13 12 13 12 12 13 13 13 13 13 12 13 13 14 12 14 13 13 13 12 12 13 12 11 12 12 12 11 11 10 13 13 14 19 7 6 4 8 5 4 9 9 8 8 10 14 14 9 10 10 12 18 20 21 21 20 19 21 22 23 22 23 24 23 24 25 24 23 20 16 17 20 22 21
8 8 9 9 9 10 10 11 11 12 12 12 12 12 12 12 12 12 13 13 13 14 13 12 13 12 14 15 14 14 13 14 14 12 12 11 12 11 12 11 12 13 14 14 17 10 8 10 7 6 6 8 8 8 8 8 11 13 11 10 11 16 19 15 18 18 18 19 20 21 22 24 24 25 25 25 23 23 21 18 18 22 23 22 22
9 9 9 9 10 10 9 10 11 11 12 12 12 13 12 13 12 12 12 13 15 15 14 13 11 12 15 16 16 14 13 12 13 12 12 12 11 12 12 12 13 12 12 14 16 21 5 7 5 7 9 8 8 9 10 8 10 14 11 11 14 16 11 10 15 19 19 19 19 20 20 20 21 23 25 23 24 26 23 21 22 23 24 22 21
8 9 9 10 10 10 10 10 11 11 11 12 11 11 12 13 13 14 13 13 15 15 13 15 14 14 15 16 15 15 13 14 12 11 12 12 12 12 11 11 12 11 12 13 17 19 11 4 4 5 5 6 5 8 9 8 8 8 9 9 9 9 9 9 9 15 17 17 18 19 19 18 17 18 19 19 19 21 21 23 21 21 22 20 18
7 9 10 10 9 9 10 11 11 11 11 12 11 11 12 13 14 12 13 14 15 15 13 15 14 13 14 14 15 13 12 14 14 13 12 12 12 12 11 11 12 12 11 13 15 14 19 4 5 3 3 7 8 5 10 10 11 10 11 11 9 9 9 9 8 9 16 17 17 17 17 18 17 17 16 16 16 15 17 21 19 18 18 17 16
7 8 9 9 9 9 10 10 10 11 11 11 10 11 12 13 14 13 13 13 15 15 15 16 15 13 14 14 14 12 11 13 14 13 12 13 12 13 13 11 12 12 12 14 13 16 17 15 8 8 7 7 10 10 10 9 7 6 8 9 9 7 6 7 8 7 11 14 13 15 16 15 16 16 17 17 17 16 16 16 17 17 16 16 16
9 8 7 8 9 9 9 10 10 10 10 10 10 10 12 13 13 14 13 13 13 14 15 15 14 13 14 14 14 12 12 13 13 12 12 12 12 12 13 11 11 12 11 11 14 14 13 14 5 8 5 6 6 4 3 4 5 4 6 5 3 6 7 7 7 7 8 11 12 14 14 15 17 16 17 17 18 17 16 15 14 14 13 12 13
8 8 8 6 8 8 10 10 10 10 11 11 11 11 11 11 12 13 12 12 13 14 14 14 13 13 13 14 15 13 13 14 14 13 11 12 12 11 12 11 11 10 9 9 11 11 13 14 10 7 8 9 7 6 8 9 8 6 4 6 6 6 6 6 6 6 5 9 11 12 13 15 15 16 17 17 16 16 15 13 12 10 9 9 9
8 8 8 7 7 9 9 10 10 11 10 10 10 11 11 11 11 11 11 11 12 13 13 13 13 12 13 14 14 13 13 14 14 12 12 13 11 12 13 12 11 10 11 11 10 11 12 15 14 14 5 8 4 5 5 6 6 8 5 5 2 4 6 7 7 5 4 4 5 6 8 11 14 16 15 15 14 14 14 13 11 9 9 8 8
7 8 8 8 7 7 9 8 10 10 10 9 10 10 11 10 10 11 11 11 12 11 12 13 12 13 13 14 14 13 14 14 14 14 12 12 12 13 13 12 12 12 13 12 11 12 13 14 14 12 10 5 5 9 4 4 3 2 6 4 5 6 6 7 7 4 4 5 5 7 7 8 9 9 11 12 13 13 12 12 11 11 9 10 9
7 7 8 9 8 6 8 7 9 8 8 8 8 9 9 9 9 10 10 11 12 12 12 12 12 12 13 14 14 14 14 15 14 13 12 12 9 10 9 9 10 11 12 10 10 11 12 12 13 12 9 7 2 2 4 2 2 4 3 6 10 9 9 7 8 7 4 4 5 4 4 5 6 7 8 9 11 11 11 10 11 10 11 11 10
6 6 7 7 8 8 7 7 7 7 8 9 7 8 9 10 9 11 12 12 12 12 13 13 13 13 13 14 14 14 14 17 19 18 17 17 14 13 11 9 11 11 12 12 13 13 13 13 13 9 8 6 6 7 5 5 9 12 9 9 9 9 4 4 5 3 4 5 5 4 5 6 6 6 5 5 6 8 8 9 7 10 10 10 11
7 6 6 6 7 8 9 8 7 7 7 7 9 14 13 10 10 10 11 11 11 12 13 13 13 13 14 13 13 17 18 18 19 20 19 17 17 16 15 12 14 13 13 12 11 10 9 11 12 12 12 12 10 10 10 9 9 3 3 7 9 8 2 4 3 5 6 6 6 7 7 5 6 5 5 7 4 5 5 5 5 5 7 10 10
8 7 6 7 7 6 7 8 8 7 7 8 12 13 13 15 12 11 12 12 12 12 13 13 14 13 12 12 12 14 15 17 17 20 18 18 19 21 23 21 16 12 10 10 11 10 11 12 12 11 12 13 10 9 10 9 7 9 10 7 10 5 7 8 10 1 6 10 9 7 6 5 6 7 5 5 4 4 4 4 5 7 8 8 9
8 7 7 7 7 6 6 6 7 7 7 9 13 14 13 12 10 8 9 10 11 11 12 12 11 11 11 11 11 10 10 11 11 12 15 19 21 21 22 22 23 25 23 18 14 11 10 11 13 13 12 14 12 8 9 7 9 7 8 6 7 9 8 8 7 9 4 11 8 7 5 3 5 5 5 4 3 3 3 4 7 8 9 9 9
7 8 8 8 7 7 6 8 8 6 6 9 13 14 13 14 14 11 9 9 9 10 10 10 9 8 6 7 9 9 10 14 12 11 9 10 15 21 22 22 21 20 19 22 21 16 12 13 15 15 14 12 12 10 10 12 9 10 7 8 8 9 10 9 11 9 3 8 5 4 5 2 4 4 4 1 2 2 2 5 8 9 9 9 9
7 8 7 8 8 7 7 8 8 7 7 9 12 13 13 13 14 13 10 11 11 12 12 11 11 12 13 14 13 12 10 9 10 12 12 13 12 10 12 12 13 17 21 24 24 22 18 14 15 17 14 9 15 12 12 10 9 11 10 12 10 9 11 14 5 2 4 9 10 7 3 2 3 4 3 2 2 2 2 4 7 8 9 10 9
8 9 9 9 8 7 8 7 8 8 7 12 13 13 12 12 13 12 9 10 10 12 12 11 12 12 12 11 11 12 9 7 9 10 10 11 10 11 12 12 12 12 12 13 12 13 15 16 17 18 15 11 13 11 8 10 13 14 15 15 14 12 3 5 6 3 4 7 5 6 6 4 3 4 3 2 3 4 2 3 10 12 13 12 12
6 6 7 5 8 8 7 7 8 9 8 11 13 12 12 11 13 9 8 9 10 10 10 11 11 12 12 11 10 11 12 13 14 14 13 11 10 13 13 14 13 12 12 13 13 15 15 16 15 16 15 13 13 10 9 10 10 7 3 4 6 6 7 6 6 4 4 5 5 6 5 4 4 5 3 2 4 6 4 5 9 12 13 13 13
9 9 8 7 6 7 8 7 8 9 8 9 12 12 12 13 11 8 8 8 9 10 10 9 9 10 10 10 10 11 11 11 10 9 11 12 11 14 15 14 13 11 14 9 10 17 19 19 20 20 20 17 15 15 13 15 12 9 6 5 6 8 8 8 7 6 8 8 7 3 5 7 5 4 6 3 4 5 5 4 1 12 13 14 13
11 10 9 10 7 5 7 8 7 9 9 9 12 14 15 14 12 9 8 8 10 9 10 9 8 9 10 13 12 12 12 11 11 12 13 10 10 12 11 11 12 13 13 7 5 12 13 15 16 17 16 15 14 14 13 14 15 13 11 13 10 10 11 11 10 7 3 5 7 6 6 6 6 7 9 4 5 4 4 4 5 5 10 12 15
9 9 8 9 9 5 5 7 8 9 9 9 11 13 14 14 11 7 7 7 10 9 9 10 7 8 9 7 11 10 10 12 17 16 15 11 10 12 11 10 14 16 15 5 9 9 7 8 10 10 11 13 12 10 10 16 18 16 13 13 7 11 12 10 7 6 2 5 8 10 9 7 11 7 10 7 3 2 1 3 4 5 6 6 6
Wind_Direction
196 194 192 196 199 202 200 203 202 199 190 205 202 201 206 206 215 227 232 234 220 228 227 240 241 239 230 237 229 223 224 225 219 210 211 212 221 232 230 231 233 239 245 253 257 239 231 229 230 231 233 233 220 224 224 221 218 214 212 211 208 203 201 195 196 199 197 199 197 194 196 201 207 209 206 198 198 194 191 183 195 174 203 189 226
195 197 195 199 199 199 205 206 207 203 198 207 208 205 205 206 215 220 225 232 231 230 219 232 236 230 221 226 224 217 215 214 215 209 211 209 213 226 229 224 230 233 235 241 246 250 245 242 240 225 235 232 224 223 227 224 222 219 217 213 212 210 205 202 202 206 205 204 204 203 205 210 213 215 215 208 205 204 210 192 193 198 207 237 235
192 195 202 198 200 203 208 205 211 207 202 210 203 210 207 208 209 213 220 223 231 234 224 233 239 229 218 217 220 216 220 220 216 212 207 210 209 216 226 226 223 230 232 231 239 245 250 257 245 230 226 230 228 225 224 226 221 222 222 220 216 216 211 209 206 210 210 211 210 213 212 216 218 218 218 217 213 212 213 213 205 202 213 218 229
192 193 197 198 202 205 208 208 214 209 204 207 205 210 208 214 214 215 218 216 229 235 228 225 236 237 226 220 219 215 220 218 218 216 212 206 208 212 215 219 226 228 233 234 235 239 246 253 253 232 236 233 230 225 225 228 227 222 221 223 222 217 217 215 212 214 215 215 216 217 219 221 222 223 221 221 220 218 216 216 215 211 219 221 216
196 196 196 202 203 205 210 213 212 206 203 206 209 209 209 215 226 222 225 224 229 237 234 224 232 236 228 230 220 225 222 218 223 221 220 213 207 210 213 216 217 230 235 239 240 238 234 238 252 243 236 233 234 234 226 225 229 227 221 225 225 222 218 222 221 219 221 223 221 221 223 225 226 225 225 223 224 223 222 220 220 213 218 223 221
198 203 199 201 206 209 211 214 210 204 201 200 208 205 212 213 223 217 228 224 227 233 231 235 235 238 234 230 220 225 219 222 222 221 219 217 211 210 215 214 216 218 227 235 239 242 239 231 235 243 244 243 238 233 235 234 225 225 224 225 227 229 226 221 224 224 226 229 228 226 226 228 227 226 227 228 224 227 226 225 225 222 219 224 228
205 203 206 205 209 214 216 218 202 201 203 205 203 210 212 220 215 223 232 233 232 234 228 233 234 236 237 224 224 226 226 224 223 224 220 221 211 217 216 213 212 216 220 225 237 239 239 238 232 234 240 245 244 232 230 233 228 225 219 220 225 229 231 229 224 229 230 230 234 234 232 230 231 229 229 228 229 227 228 228 228 229 225 227 231
206 204 207 208 211 216 219 207 203 203 210 209 206 214 219 228 225 217 229 237 231 237 230 234 233 239 237 228 227 222 224 225 226 225 223 219 221 220 216 215 212 214 215 220 225 233 236 235 237 235 235 242 246 242 234 230 230 231 225 220 223 225 229 232 232 229 232 233 233 237 239 237 236 235 233 232 230 230 231 230 230 230 231 229 229
207 206 210 207 211 218 215 203 196 203 209 210 210 212 214 225 232 224 224 236 229 236 235 231 236 239 239 234 228 223 225 223 224 226 222 222 227 224 220 218 217 216 215 217 219 227 235 234 233 235 235 237 241 247 246 241 232 237 235 229 228 228 228 227 230 233 235 235 235 239 240 241 240 240 239 236 234 232 232 233 232 231 232 231 230
207 208 213 212 207 211 211 202 197 204 211 212 218 209 214 216 232 228 222 232 234 230 233 231 233 241 241 237 239 232 232 230 229 231 225 228 228 226 220 216 212 217 217 215 214 218 223 233 233 233 233 233 236 244 249 248 245 237 237 233 228 229 229 228 229 230 228 232 235 234 241 242 242 242 243 241 239 237 235 235 235 235 232 233 234
206 207 214 215 213 210 211 206 200 204 209 216 221 216 217 219 226 233 225 229 235 236 236 230 236 243 246 243 241 243 241 233 233 233 230 231 228 226 221 223 215 217 217 214 216 213 217 222 226 227 232 234 234 238 244 249 247 246 241 238 235 232 233 232 231 230 231 233 238 241 241 244 243 242 243 244 243 241 239 238 238 237 237 236 236
207 208 214 217 217 213 213 203 206 205 213 218 220 214 216 218 227 228 235 241 240 246 236 228 247 251 254 260 250 253 252 243 240 237 234 232 231 221 225 223 219 223 218 216 214 214 214 217 219 221 222 228 231 234 238 241 245 249 245 243 240 237 234 232 230 229 234 232 232 238 241 245 246 244 244 245 245 244 243 242 241 240 240 240 239
213 209 216 219 223 221 214 210 204 210 218 224 219 219 216 214 221 217 226 235 242 226 233 191 234 266 252 260 271 259 255 249 248 245 238 235 224 222 224 220 222 223 221 215 215 213 213 215 217 217 218 220 229 233 234 234 234 240 243 242 244 244 240 239 239 238 231 231 235 231 235 241 242 245 244 244 245 245 245 245 244 242 242 242 241
216 215 217 216 222 225 223 221 211 218 224 229 225 221 214 213 211 229 217 224 237 205 201 144 234 231 249 285 279 264 246 244 246 246 240 236 224 222 221 221 223 223 223 216 221 219 216 216 214 216 218 217 222 225 231 235 234 234 238 240 241 245 247 248 247 242 238 234 234 237 233 235 241 245 246 245 245 245 246 246 245 245 244 243 242
216 215 220 220 223 223 225 219 218 218 224 229 227 225 216 215 209 217 223 228 239 207 192 187 232 209 180 347 273 293 277 248 244 241 234 233 222 225 224 225 226 223 218 217 223 224 220 216 216 217 219 218 217 220 222 225 225 229 233 236 239 242 245 248 249 248 246 242 234 236 237 234 230 235 242 244 244 245 246 247 247 246 245 245 244
216 217 219 223 220 224 226 223 222 214 222 230 228 231 221 220 216 218 213 230 223 231 197 200 209 129 221 216 234 180 306 249 231 244 218 231 219 227 222 227 228 226 216 219 224 222 222 214 218 219 220 219 216 217 219 221 226 226 228 231 235 241 246 247 248 248 247 247 246 242 245 242 236 236 238 241 244 247 246 246 247 247 247 246 246
217 218 219 223 222 224 225 227 227 223 221 229 231 229 226 224 218 217 211 221 229 224 217 205 212 205 191 121 205 228 235 265 80 268 200 224 228 225 225 227 227 223 216 225 224 223 220 218 221 220 223 221 219 217 218 221 223 226 228 229 232 234 239 243 247 248 246 246 246 246 242 241 240 236 238 241 242 243 246 246 245 247 248 248 247
220 220 221 222 224 223 224 226 229 228 224 230 236 233 229 224 218 218 223 222 230 224 231 211 216 214 221 225 171 188 198 257 126 272 319 239 237 227 226 224 225 226 221 223 222 225 217 224 219 223 222 222 220 218 218 220 218 220 219 226 226 231 234 238 243 248 250 247 245 245 247 248 249 246 241 239 241 237 241 245 248 248 248 247 247
226 223 223 222 224 224 223 226 229 231 229 230 233 233 233 228 222 220 226 222 218 234 230 218 206 234 227 232 244 233 152 126 238 340 303 316 256 234 235 226 225 229 226 222 226 226 225 222 223 221 223 220 219 219 218 222 220 220 220 220 221 228 227 232 237 241 246 249 250 249 250 247 246 249 243 229 236 233 234 239 245 248 248 247 247
227 226 226 225 222 224 223 225 228 229 227 230 233 234 235 233 224 225 226 221 217 224 234 215 205 229 218 231 238 247 240 247 208 214 239 284 291 298 260 239 230 237 229 225 226 224 227 223 225 223 223 220 217 218 221 219 220 222 226 223 222 222 223 228 230 236 240 245 249 251 248 246 245 245 247 238 233 239 233 230 239 244 245 246 246
225 226 226 226 223 224 222 224 227 229 223 232 234 232 230 231 227 223 223 224 220 226 230 230 217 231 206 228 234 239 243 244 248 219 244 261 269 255 261 256 253 247 234 227 228 227 226 228 222 222 223 221 216 219 220 219 219 222 225 221 223 225 225 227 226 228 233 237 244 250 252 249 245 245 245 246 247 244 233 228 231 237 244 243 244
226 226 228 225 225 223 224 226 227 230 228 232 234 233 232 230 229 227 225 227 224 223 225 232 229 231 222 223 217 234 244 249 240 237 241 228 250 255 249 233 240 239 225 227 224 228 230 229 225 220 223 221 219 217 218 218 221 221 224 223 225 227 227 229 228 228 231 233 236 240 247 254 258 253 248 245 246 245 239 235 236 236 236 241 242
225 227 226 225 225 224 225 227 229 230 230 232 233 233 233 232 231 229 228 226 226 226 228 234 233 231 226 222 225 218 220 223 230 224 223 232 241 251 257 240 240 269 236 215 219 229 228 229 224 220 221 221 220 216 217 221 222 224 224 221 224 225 226 229 229 227 227 231 232 236 237 239 244 253 259 255 248 245 246 241 234 231 234 236 237
228 231 229 226 226 227 228 230 231 231 232 232 234 234 234 232 231 228 230 230 230 228 229 231 230 233 231 227 229 229 232 235 237 227 218 234 229 248 248 258 253 238 260 205 236 227 224 231 223 221 220 222 219 216 218 221 225 226 225 226 225 225 227 226 228 229 230 232 234 235 235 235 236 238 243 251 258 255 249 247 243 238 236 230 235
229 231 231 223 220 226 228 228 230 230 233 232 234 233 232 231 231 230 230 230 228 226 229 231 229 228 232 231 233 231 234 237 242 237 236 239 232 252 251 240 253 265 256 203 247 233 230 236 226 221 223 221 218 215 217 219 225 225 223 229 226 229 229 229 231 231 231 232 235 235 234 232 235 235 236 239 244 252 257 255 251 241 233 235 235
233 230 230 224 220 223 226 229 231 233 231 232 233 233 230 230 230 231 231 232 231 228 231 233 234 235 235 237 232 233 237 237 240 238 236 231 238 239 262 260 245 264 288 257 282 240 256 234 228 227 224 223 219 218 216 222 225 230 222 222 229 229 229 227 227 230 232 233 233 235 233 230 232 236 237 236 238 242 246 252 256 256 247 236 234
235 237 228 222 222 224 226 230 231 232 231 231 232 233 231 231 231 232 233 231 233 230 232 231 235 234 234 234 238 237 237 239 240 240 236 235 238 246 248 266 270 253 263 245 275 221 250 269 222 222 223 220 218 218 220 220 227 227 221 220 232 229 229 231 229 229 231 233 234 233 233 232 230 231 234 236 238 238 239 241 245 251 253 248 243
241 237 230 220 222 224 225 229 231 233 232 230 231 231 230 231 232 231 235 230 236 231 234 232 236 235 237 238 240 240 237 238 239 241 238 239 240 245 240 246 261 276 247 266 225 256 206 245 265 223 221 216 222 220 221 224 231 230 219 219 224 231 229 228 229 229 230 233 234 235 234 231 230 230 235 239 242 243 242 242 240 241 245 247 246
242 233 236 224 225 224 227 229 230 232 233 231 230 230 230 231 232 233 235 233 235 235 234 234 237 234 238 236 238 242 238 238 240 238 239 239 239 240 231 237 239 256 275 271 263 244 239 197 238 241 202 212 221 216 220 223 228 223 215 216 221 227 228 225 227 230 232 234 234 232 233 232 232 233 233 236 239 241 241 240 237 240 241 243 243
239 239 234 233 230 225 228 230 230 230 231 233 232 232 230 233 232 234 235 235 238 239 236 237 238 235 238 237 236 241 236 236 237 234 233 234 236 235 236 235 228 242 256 266 274 209 251 206 217 237 202 219 216 218 216 223 227 220 219 216 220 226 228 224 224 225 229 231 232 231 231 229 228 231 233 233 235 234 235 236 232 231 234 235 236
249 245 239 237 233 230 225 230 229 230 229 231 230 233 229 235 232 237 234 234 238 240 237 235 237 234 238 238 235 239 233 236 237 235 233 230 233 234 238 230 233 233 246 258 272 266 174 249 228 234 212 217 211 216 219 224 227 217 217 219 222 227 228 230 228 227 225 224 225 227 230 229 230 232 235 238 237 237 234 228 228 236 233 232 235
249 246 245 242 239 237 232 231 231 231 229 228 225 228 228 231 232 233 234 230 235 238 238 233 236 234 236 238 236 237 236 237 237 234 235 231 230 233 232 234 235 230 237 248 254 264 183 228 208 217 214 213 205 209 221 224 227 216 216 216 224 224 227 229 224 223 225 223 223 226 229 230 232 235 237 238 237 237 235 233 234 233 234 230 231
254 251 246 246 244 241 239 236 234 234 232 232 226 227 227 230 230 232 233 229 235 237 237 239 235 237 237 240 240 238 237 239 239 236 235 234 232 232 231 233 236 229 229 238 250 264 257 190 201 208 215 207 229 210 225 221 229 226 226 232 227 220 220 221 223 224 224 223 223 224 226 228 230 237 239 239 236 238 232 231 232 233 234 231 228
256 255 249 250 247 246 244 243 240 239 239 237 233 228 230 230 233 230 232 231 235 237 235 240 236 236 240 242 244 241 237 240 243 238 236 235 233 235 232 226 232 231 217 231 246 253 267 220 256 195 226 190 229 194 213 216 225 212 210 215 216 213 216 216 220 224 219 221 222 224 224 225 225 229 235 238 238 233 231 232 226 224 227 231 233
273 259 260 256 254 250 250 248 247 246 243 242 239 233 234 232 234 233 230 230 233 236 236 239 239 237 240 240 243 240 237 240 241 239 237 237 235 236 237 227 232 229 220 221 234 248 255 258 220 230 205 201 204 212 212 223 236 211 222 224 219 219 221 213 220 229 218 215 215 219 223 222 227 224 226 231 233 236 236 232 226 223 224 225 225
283 277 265 265 262 257 255 255 250 251 250 246 243 237 237 235 237 237 235 234 235 236 238 240 239 238 239 243 243 238 239 241 242 238 237 235 236 236 238 234 233 233 225 223 228 241 254 264 220 220 211 213 242 253 202 214 221 237 243 264 228 216 216 217 220 226 217 210 210 214 215 218 224 224 225 227 229 231 233 233 231 229 228 226 227
285 283 278 262 263 261 259 256 254 251 249 247 247 244 240 240 241 241 240 238 238 239 240 241 239 237 239 239 243 236 236 239 241 238 239 234 235 234 237 233 232 234 233 231 235 237 247 252 253 218 202 210 210 201 192 198 215 210 200 215 223 229 228 221 223 230 223 215 220 218 217 220 222 224 225 225 226 225 226 228 230 227 221 217 216
294 287 285 283 267 267 261 261 258 257 255 251 249 249 246 242 242 244 244 242 243 243 244 243 241 239 241 243 243 239 238 239 243 240 238 238 235 233 231 227 225 226 231 231 229 234 240 250 254 259 195 213 231 236 216 232 202 209 229 235 229 236 228 237 232 219 205 202 205 216 220 225 227 225 223 223 222 222 223 224 223 216 204 194 189
294 295 291 284 277 269 271 269 267 264 262 257 254 252 251 249 246 245 244 245 246 245 245 245 243 241 242 243 244 239 239 241 244 243 237 234 227 229 229 229 227 225 232 232 234 241 245 252 255 253 254 240 226 226 211 179 234 254 234 214 256 232 227 221 239 217 198 207 213 205 208 208 212 217 220 220 220 220 223 223 218 209 200 196 188
298 292 293 293 291 282 279 274 273 275 272 269 263 260 258 255 252 249 245 246 247 246 246 245 243 243 242 243 243 240 237 237 236 240 236 243 238 246 240 237 238 234 239 239 243 245 248 252 252 250 237 214 245 357 32 93 186 273 223 208 230 230 222 214 223 207 203 195 206 207 202 194 204 213 217 222 222 219 214 211 209 205 201 200 199
295 292 292 297 301 298 290 283 283 276 273 271 266 262 261 261 253 254 251 248 246 248 249 248 245 244 243 242 242 241 237 240 238 238 234 227 227 237 239 232 240 234 239 235 236 234 239 244 252 252 252 221 207 187 188 190 202 216 204 194 237 251 217 196 236 204 187 189 205 184 213 192 193 201 195 208 219 216 212 199 198 198 192 192 191
302 300 306 303 295 293 298 296 290 288 283 280 273 270 265 263 263 260 259 254 251 251 252 252 250 245 245 246 245 242 240 238 236 235 236 234 231 233 243 227 229 232 235 237 233 230 234 242 243 237 236 238 212 198 204 207 217 215 115 183 221 231 130 238 274 217 183 177 178 211 217 191 188 197 185 203 193 182 190 181 174 166 175 185 189
311 312 312 305 299 295 294 296 299 293 290 291 294 288 283 273 267 268 263 259 253 252 251 249 249 247 245 245 248 244 237 237 238 238 239 237 235 237 244 247 244 237 240 237 239 230 232 239 246 240 241 245 230 200 207 207 200 206 214 195 216 194 205 208 235 284 197 173 196 206 215 184 175 196 197 200 181 181 182 190 170 175 183 192 201
315 315 307 295 296 294 294 294 293 294 295 296 295 297 303 307 303 292 285 281 276 260 252 249 250 250 249 248 244 240 238 238 241 241 238 240 245 250 248 243 240 234 226 223 228 229 226 236 243 237 234 235 236 191 201 196 213 205 218 205 205 207 210 216 228 229 197 174 178 192 206 110 182 187 189 196 171 183 183 184 197 197 196 198 205
310 311 304 305 298 295 291 290 287 284 286 293 299 302 306 308 309 309 291 284 280 278 275 269 262 261 264 266 268 257 253 243 239 245 246 242 235 237 242 245 247 250 254 251 242 235 224 229 240 243 228 228 234 220 193 203 191 205 199 208 209 209 212 216 226 214 171 179 138 169 189 159 164 176 174 87 119 116 163 193 202 200 190 187 183
308 305 303 299 297 295 290 289 288 289 283 277 283 289 293 297 301 303 292 289 281 275 275 275 277 275 268 262 262 261 251 243 239 238 242 246 250 245 246 246 246 244 240 239 241 243 245 242 241 242 239 200 228 220 205 186 169 203 198 218 208 208 208 220 229 124 123 172 177 151 119 150 162 145 137 39 48 83 163 206 187 174 164 155 152
310 308 308 308 301 295 293 289 289 290 284 283 282 283 286 291 294 291 285 283 281 277 276 273 272 271 270 266 258 257 259 249 249 244 238 242 249 255 254 249 245 245 241 240 237 235 234 235 241 244 246 225 231 227 193 188 198 207 203 211 202 201 168 63 61 72 140 191 171 155 183 125 141 116 63 53 92 76 20 162 137 128 127 129 134
295 289 289 278 290 297 293 294 293 289 288 284 287 292 294 296 296 292 286 283 279 277 277 278 277 275 276 277 281 279 275 268 249 229 228 239 245 248 249 252 255 254 253 248 242 239 235 236 237 240 241 229 221 217 203 191 203 203 124 69 95 125 157 173 179 166 185 205 212 168 116 141 176 116 118 24 89 79 49 55 119 131 133 134 137
310 309 302 296 290 291 293 292 291 290 293 295 296 298 301 298 298 288 287 284 281 281 277 275 274 278 280 282 280 280 279 276 275 271 262 254 255 254 253 255 256 254 255 246 231 242 244 245 248 247 246 241 230 227 214 196 194 173 140 137 182 161 164 190 201 173 203 170 208 184 112 118 173 132 122 50 66 78 44 21 63 134 134 134 137
310 305 306 303 292 281 287 289 287 293 294 297 296 296 295 292 288 288 285 284 281 280 284 278 276 274 273 276 277 282 284 285 298 289 263 234 242 253 258 259 262 259 258 242 245 253 250 251 251 253 254 252 243 236 225 202 189 162 168 201 193 164 195 199 196 189 123 173 189 154 118 143 128 134 112 118 79 26 9 13 33 78 116 131 133
286 293 298 297 296 284 266 273 279 279 284 288 287 287 288 291 291 286 284 284 286 285 286 286 278 275 281 275 269 268 271 280 281 279 276 260 250 252 250 255 260 261 258 218 236 252 255 248 251 244 247 240 236 226 215 201 188 185 194 207 159 179 195 200 167 121 91 251 197 177 146 155 150 182 144 121 60 338 29 358 52 65 64 58 85